Location: Bocianicha
(51.5066°N, 19.2563°E)
Time: 14:03:27
(UTC+00:00)

Cosmos 1378 Rocket - Pass Details

Date: 15 June 2025
Orbit: 594 x 621 km, 82.5° (Epoch: 18 July)

Event Time Altitude Azimuth Distance (km) Brightness Sun altitude
Exits shadow 00:40:25 14° 225° (SW) 1,729 5.2 -10.9°
Maximum altitude 00:43:47 37° 288° (WNW) 977 4.5 -10.7°
Drops below altitude 10° 00:47:53 10° 356° (N) 1,989 7.1 -10.4°
Sets 00:50:15 0° 5° (N) 2,895 8.4 -10.2°
